[[{"header":{"parameterUnit":"m.s-1","parameterCategory":1,"la1":30.2991,"la2":30.254,"lo1":-89.0895,"lo2":-89.0444,"dy":0.0017,"dx":0.0017,"nx":28,"ny":28,"refTime":"2024-05-10T09:00:00:Z","depth":0,"parameterNumber":2,"parameterNumberName":"U-component_of_WINDS"},"data":[0,0,0,0,0,0,0,0,0,0,0,0,0,0,0,0,0,0,0,0,0,0,0,0,0,0,0,0,0,0,0,0,0,0,0,0,0,0,0,0,0,0,0,0,0,0,0,0,0,0,0,0,0,0,0,0,0,0,-0.7128,-0.7129,0,-0.7191,-0.7192,-0.7193,-0.7176,-0.7174,-0.7173,-0.7172,-0.724,-0.7243,-0.7246,0,0,0,0,0,0,0,0,0,0,0,0,0,-0.6995,-0.6997,-0.7128,-0.7129,-0.713,-0.7191,-0.7192,-0.7193,-0.7176,-0.7174,-0.7173,-0.7171,-0.7239,-0.7243,-0.7246,0,0,0,0,0,0,0,0,0,0,0,0,0,-0.7055,-0.6998,-0.7128,-0.7128,-0.7129,-0.7191,-0.7192,-0.7193,-0.7176,-0.7174,-0.7172,-0.717,-0.7238,-0.7242,-0.7247,-0.7313,0,0,-0.7261,-0.7263,0,0,0,0,0,0,0,0,-0.7052,-0.706,-0.7127,-0.7128,-0.7129,-0.7173,-0.717,-0.7234,-0.7177,-0.7158,-0.7172,-0.717,-0.722,-0.7226,-0.7242,-0.7317,-0.7319,-0.7261,-0.7264,-0.7266,-0.7267,0,0,0,0,0,0,0,-0.7048,-0.7057,-0.7153,-0.7128,-0.713,-0.7126,-0.7133,-0.7182,-0.7199,-0.716,-0.7159,-0.7166,-0.722,-0.7238,-0.7243,-0.7321,-0.7261,-0.7265,-0.7268,-0.727,-0.7453,-0.7455,0,0,0,0,0,0,-0.7042,-0.7054,-0.7151,-0.7155,-0.7085,-0.713,-0.7137,-0.7161,-0.7199,-0.7202,-0.7168,-0.7165,-0.7231,-0.7238,-0.7246,-0.7327,-0.7266,-0.727,-0.7273,-0.7451,-0.7454,-0.7456,0,0,0,0,0,0,-0.7039,-0.7051,-0.7149,-0.7104,-0.7116,-0.7135,-0.7162,-0.7164,-0.7181,-0.7205,-0.7208,-0.7183,-0.723,-0.7239,-0.7296,-0.7329,-0.7272,-0.7276,-0.7448,-0.7452,-0.7455,-0.7488,0,0,0,0,0,0,-0.7036,-0.705,-0.7075,-0.7105,-0.7119,-0.7198,-0.7163,-0.7166,-0.7189,-0.7186,-0.7219,-0.7223,-0.7229,-0.729,-0.7301,-0.7334,-0.728,-0.7446,-0.745,-0.7454,-0.7485,-0.7492,-0.7499,0,0,0,0,0,-0.7031,-0.7083,-0.7076,-0.7088,-0.715,-0.7199,-0.7207,-0.7212,-0.7191,-0.7217,-0.7232,-0.7222,-0.7323,-0.7296,-0.7308,-0.7343,-0.7444,-0.7449,-0.7453,-0.7481,-0.7491,-0.7499,0,0,0,0,0,0,-0.7058,-0.7087,-0.708,-0.7143,-0.7169,-0.7196,-0.7229,-0.7222,-0.7255,-0.7252,-0.7257,-0.7264,-0.7323,-0.7338,-0.7308,-0.7409,-0.738,-0.7388,-0.7397,-0.7407,-0.7414,-0.741,-0.7284,0,0,0,0,0,-0.7071,-0.7108,-0.7131,-0.7184,-0.7197,-0.7211,-0.7233,-0.7234,-0.7261,-0.7272,-0.7292,-0.732,-0.7358,-0.7383,-0.7419,-0.7486,-0.7494,-0.7516,-0.7523,-0.7529,-0.7536,-0.7573,-0.7584,-0.7472,-0.7472,-0.7472,0,0,-0.7099,-0.7119,-0.7142,-0.719,-0.721,-0.7249,-0.722,-0.7263,-0.7292,-0.7279,-0.7334,-0.7349,-0.7381,-0.7443,-0.7472,-0.7458,-0.7568,-0.7535,-0.754,-0.7544,-0.758,-0.759,-0.76,-0.7475,-0.7475,-0.7474,0,0,-0.7169,-0.7188,-0.7234,-0.7255,-0.7285,-0.7293,-0.7304,-0.7333,-0.7342,-0.7397,-0.7388,-0.7423,-0.7489,-0.7512,-0.7532,-0.761,-0.7602,-0.7621,-0.766,-0.7696,-0.7705,-0.7713,-0.7742,-0.7752,-0.7628,-0.7628,-0.7628,0,-0.7201,-0.7258,-0.7259,-0.7302,-0.7324,-0.7312,-0.736,-0.738,-0.7421,-0.7437,-0.742,-0.7502,-0.7522,-0.759,-0.7609,-0.7625,-0.7639,-0.7619,-0.7704,-0.7712,-0.7719,-0.7747,-0.7758,-0.763,-0.763,-0.763,-0.763,0,-0.7295,-0.7335,-0.7369,-0.7408,-0.7433,-0.7478,-0.7487,-0.7513,-0.7511,-0.7522,-0.7578,-0.7602,-0.7643,-0.7658,-0.7658,-0.7726,-0.7717,-0.7702,-0.7673,-0.7732,-0.7758,-0.7769,-0.7633,-0.7633,-0.7632,-0.7631,0,0,-0.7387,-0.7424,-0.7437,-0.7454,-0.7486,-0.7518,-0.7562,-0.7601,-0.7623,-0.7652,-0.769,-0.7745,-0.7731,-0.7754,-0.7755,-0.7787,-0.7848,-0.7768,-0.7769,-0.7784,-0.7927,-0.7939,-0.7951,-0.7843,-0.7845,-0.7846,-0.7924,0,-0.7461,-0.7539,-0.7541,-0.7613,-0.765,-0.7639,-0.7678,-0.7702,-0.7713,-0.7746,-0.7758,-0.7797,-0.7775,-0.7789,-0.782,-0.7834,-0.7878,-0.7829,-0.788,-0.7882,-0.7874,-0.7965,-0.7978,-0.805,-0.7934,-0.7936,-0.7937,0,-0.7559,-0.7589,-0.7664,-0.7691,-0.7706,-0.7741,-0.7777,-0.7809,-0.7836,-0.7842,-0.7867,-0.7863,-0.791,-0.7878,-0.7943,-0.7909,-0.793,-0.794,-0.7943,-0.795,-0.7915,-0.7975,-0.8074,-0.8085,-0.7953,-0.7952,-0.7951,0,-0.762,-0.7679,-0.7732,-0.7747,-0.7779,-0.7804,-0.7818,-0.7843,-0.7866,-0.7898,-0.7913,-0.7949,-0.797,-0.7998,-0.8005,-0.7981,-0.807,-0.8039,-0.8078,-0.8078,-0.8099,-0.8098,-0.8204,-0.8109,-0.8109,-0.8109,-0.8109,0,-0.7704,-0.7751,-0.776,-0.7792,-0.7844,-0.7846,-0.7898,-0.7911,-0.7933,-0.7969,-0.7961,-0.7994,-0.8001,-0.8036,-0.8042,-0.8095,-0.8104,-0.8111,-0.8112,-0.8112,-0.8112,-0.8128,-0.8123,-0.8112,-0.8111,-0.811,-0.811,0,-0.7782,-0.7789,-0.7846,-0.7871,-0.7878,-0.7916,-0.7937,-0.7969,-0.7977,-0.8023,-0.8033,-0.8048,-0.8089,-0.8098,-0.8147,-0.8151,-0.8214,-0.821,-0.8205,-0.8205,-0.8244,-0.824,-0.8365,-0.8382,-0.8275,-0.8276,-0.8277,0,-0.7836,-0.7872,-0.7899,-0.7922,-0.7937,-0.7974,-0.7997,-0.8,-0.8024,-0.8058,-0.8086,-0.8125,-0.8157,-0.8224,-0.8239,-0.8277,-0.8274,-0.8315,-0.828,-0.8279,-0.8277,-0.8275,-0.8279,-0.8323,-0.8324,-0.8325,-0.8325,0,-0.7932,-0.7933,-0.7966,-0.8001,-0.8028,-0.8055,-0.8081,-0.8101,-0.8107,-0.8135,-0.8176,-0.8201,-0.825,-0.829,-0.8327,-0.8343,-0.8336,-0.8336,-0.8347,-0.8349,-0.8345,-0.8349,-0.8225,-0.8334,-0.8333,-0.8332,-0.8332,-0.8331,-0.8,-0.8031,-0.8056,-0.8093,-0.8112,-0.8136,-0.8167,-0.8179,-0.8213,-0.8253,-0.8252,-0.8298,-0.8324,-0.8373,-0.8391,-0.8427,-0.8414,-0.843,-0.8435,-0.8439,-0.8443,-0.8337,-0.8434,-0.8433,-0.8433,-0.8433,-0.8433,0,-0.8097,-0.8111,-0.8145,-0.8181,-0.821,-0.8199,-0.8227,-0.8252,-0.8292,-0.8316,-0.8348,-0.8395,-0.8433,-0.8451,-0.8489,-0.8515,-0.8513,-0.8525,-0.8524,-0.8528,-0.8452,-0.8439,-0.8526,-0.8526,-0.8526,-0.8526,-0.8526,-0.8526,-0.8151,-0.8203,-0.8207,-0.8269,-0.8283,-0.8327,-0.8344,-0.8366,-0.8386,-0.8439,-0.847,-0.8481,-0.8503,-0.8542,-0.8577,-0.8582,-0.8597,-0.8611,-0.8614,-0.8543,-0.8533,-0.8524,-0.8512,-0.8614,-0.8614,-0.8688,-0.8689,-0.8689]},{"header":{"parameterUnit":"m.s-1","parameterCategory":1,"la1":30.2991,"la2":30.254,"lo1":-89.0895,"lo2":-89.0444,"dy":0.0017,"dx":0.0017,"nx":28,"ny":28,"refTime":"2024-05-10T09:00:00:Z","depth":0,"parameterNumber":3,"parameterNumberName":"V-component_of_WINDS"},"data":[0,0,0,0,0,0,0,0,0,0,0,0,0,0,0,0,0,0,0,0,0,0,0,0,0,0,0,0,0,0,0,0,0,0,0,0,0,0,0,0,0,0,0,0,0,0,0,0,0,0,0,0,0,0,0,0,0,0,-5.8271,-5.8271,0,-5.8313,-5.8313,-5.8314,-5.8206,-5.8203,-5.82,-5.8196,-5.8235,-5.8239,-5.8243,0,0,0,0,0,0,0,0,0,0,0,0,0,-5.8094,-5.8098,-5.8271,-5.8271,-5.8272,-5.8313,-5.8313,-5.8314,-5.8207,-5.8203,-5.8199,-5.8195,-5.8234,-5.8239,-5.8244,0,0,0,0,0,0,0,0,0,0,0,0,0,-5.8157,-5.8099,-5.8271,-5.8224,-5.822,-5.8313,-5.8313,-5.8314,-5.8208,-5.8203,-5.8198,-5.8193,-5.8232,-5.8238,-5.8245,-5.8384,0,0,-5.8264,-5.8266,0,0,0,0,0,0,0,0,-5.8154,-5.8163,-5.823,-5.8227,-5.8223,-5.8249,-5.8265,-5.8337,-5.8209,-5.8212,-5.8196,-5.8191,-5.8244,-5.8249,-5.8267,-5.8385,-5.8387,-5.8264,-5.8268,-5.8271,-5.8272,0,0,0,0,0,0,0,-5.8149,-5.8161,-5.8287,-5.8231,-5.8227,-5.8199,-5.8202,-5.8278,-5.8256,-5.8212,-5.8204,-5.8211,-5.8241,-5.8262,-5.8268,-5.8388,-5.8264,-5.827,-5.8273,-5.8276,-5.8621,-5.8626,0,0,0,0,0,0,-5.8152,-5.8158,-5.8286,-5.8288,-5.8175,-5.8206,-5.821,-5.8246,-5.8254,-5.8251,-5.8215,-5.8205,-5.8254,-5.826,-5.8269,-5.8432,-5.8271,-5.8276,-5.828,-5.8616,-5.8622,-5.8628,0,0,0,0,0,0,-5.8148,-5.8164,-5.8284,-5.8221,-5.8235,-5.8215,-5.8256,-5.8249,-5.827,-5.8257,-5.8252,-5.8241,-5.825,-5.826,-5.8356,-5.8432,-5.8279,-5.8285,-5.8609,-5.8618,-5.8625,-5.876,0,0,0,0,0,0,-5.8144,-5.8163,-5.8217,-5.8223,-5.8238,-5.8373,-5.826,-5.8254,-5.8282,-5.827,-5.828,-5.8277,-5.8247,-5.8347,-5.8362,-5.8437,-5.829,-5.8602,-5.8613,-5.8623,-5.8748,-5.8771,-5.8791,0,0,0,0,0,-5.8138,-5.8253,-5.8221,-5.8236,-5.8305,-5.8377,-5.8386,-5.835,-5.8288,-5.8341,-5.8333,-5.8276,-5.8421,-5.8358,-5.8374,-5.8452,-5.8597,-5.861,-5.8622,-5.8739,-5.8767,-5.8791,0,0,0,0,0,0,-5.8254,-5.8252,-5.8217,-5.8337,-5.8359,-5.8359,-5.8425,-5.8381,-5.8419,-5.8406,-5.8359,-5.8362,-5.8467,-5.8469,-5.8399,-5.8587,-5.8498,-5.8514,-5.8582,-5.8608,-5.8629,-5.8627,-5.8295,0,0,0,0,0,-5.8294,-5.8354,-5.8349,-5.8456,-5.8468,-5.8445,-5.8475,-5.8446,-5.8465,-5.8473,-5.8471,-5.8491,-5.8541,-5.8575,-5.862,-5.8748,-5.8748,-5.8809,-5.8831,-5.8848,-5.8863,-5.893,-5.8957,-5.8668,-5.8668,-5.8668,0,0,-5.8377,-5.8383,-5.8424,-5.8479,-5.8492,-5.8554,-5.8453,-5.8523,-5.8568,-5.8483,-5.8574,-5.8574,-5.8593,-5.8706,-5.8755,-5.8711,-5.8943,-5.8864,-5.8878,-5.8883,-5.8946,-5.8973,-5.8998,-5.8677,-5.8675,-5.8674,0,0,-5.8559,-5.8571,-5.8661,-5.8676,-5.8697,-5.8681,-5.8703,-5.8711,-5.8708,-5.8799,-5.8736,-5.8788,-5.8875,-5.8891,-5.8911,-5.91,-5.9049,-5.9115,-5.9227,-5.9293,-5.9316,-5.9336,-5.9403,-5.9428,-5.913,-5.913,-5.913,0,-5.8659,-5.8751,-5.8712,-5.8787,-5.8813,-5.874,-5.8831,-5.8847,-5.8881,-5.89,-5.885,-5.8957,-5.8965,-5.908,-5.9127,-5.9145,-5.9167,-5.9114,-5.9316,-5.9336,-5.9354,-5.9417,-5.9443,-5.9138,-5.9137,-5.9136,-5.9135,0,-5.8873,-5.8938,-5.9008,-5.9045,-5.9078,-5.916,-5.9133,-5.9171,-5.9139,-5.9128,-5.9221,-5.9227,-5.9273,-5.9298,-5.9266,-5.9409,-5.9381,-5.9324,-5.9234,-5.939,-5.9449,-5.9473,-5.9149,-5.9146,-5.9144,-5.9142,0,0,-5.9129,-5.9144,-5.9171,-5.9187,-5.9205,-5.9254,-5.9332,-5.9377,-5.9411,-5.9437,-5.9501,-5.9576,-5.9524,-5.9546,-5.9516,-5.9575,-5.9724,-5.9511,-5.951,-5.955,-5.9881,-5.9923,-5.9952,-5.969,-5.9695,-5.9698,-5.9879,0,-5.931,-5.9446,-5.9413,-5.9547,-5.9606,-5.9538,-5.9606,-5.9624,-5.9616,-5.9664,-5.9653,-5.9708,-5.9635,-5.9648,-5.9703,-5.9694,-5.9789,-5.968,-5.9748,-5.9751,-5.9746,-5.9983,-6.0028,-6.0198,-5.9902,-5.9906,-5.9908,0,-5.9538,-5.9575,-5.9716,-5.9724,-5.9748,-5.981,-5.9849,-5.9896,-5.9914,-5.9904,-5.9929,-5.9887,-5.9963,-5.9873,-5.9977,-5.9903,-5.9929,-5.9929,-5.9934,-5.9939,-5.9839,-5.9994,-6.0251,-6.0277,-5.9944,-5.9941,-5.9939,0,-5.9711,-5.9796,-5.9891,-5.9906,-5.9919,-5.9964,-5.9971,-5.9985,-6.0014,-6.0047,-6.0066,-6.0107,-6.013,-6.0163,-6.0133,-6.007,-6.0241,-6.0148,-6.0234,-6.0235,-6.0273,-6.0271,-6.0538,-6.029,-6.0289,-6.0289,-6.0288,0,-5.9916,-6.0005,-5.9969,-6.0028,-6.0124,-6.0085,-6.0182,-6.0181,-6.0193,-6.0249,-6.0192,-6.0246,-6.0203,-6.0252,-6.0229,-6.0318,-6.0329,-6.0322,-6.0315,-6.0327,-6.0328,-6.0343,-6.0331,-6.0296,-6.0294,-6.0293,-6.0292,0,-6.0126,-6.0106,-6.0205,-6.0209,-6.0212,-6.0284,-6.0286,-6.034,-6.0327,-6.0399,-6.0413,-6.0394,-6.0449,-6.0422,-6.0479,-6.0464,-6.0579,-6.0555,-6.0573,-6.0567,-6.0654,-6.0646,-6.094,-6.0977,-6.0705,-6.0708,-6.071,0,-6.0258,-6.0325,-6.0337,-6.0371,-6.0383,-6.0438,-6.0469,-6.0432,-6.0465,-6.0492,-6.0542,-6.0592,-6.0631,-6.0722,-6.0712,-6.0755,-6.0732,-6.0833,-6.0739,-6.0749,-6.0734,-6.073,-6.0737,-6.0852,-6.0855,-6.0857,-6.0859,0,-6.0495,-6.0481,-6.0528,-6.0572,-6.0609,-6.0641,-6.0668,-6.0699,-6.0663,-6.0703,-6.076,-6.079,-6.0849,-6.09,-6.0938,-6.0943,-6.0896,-6.0889,-6.0911,-6.0925,-6.0932,-6.0929,-6.0625,-6.0883,-6.088,-6.0879,-6.0877,-6.0876,-6.0669,-6.0726,-6.0743,-6.0797,-6.0814,-6.084,-6.0891,-6.0885,-6.0932,-6.0978,-6.0953,-6.102,-6.1035,-6.1081,-6.1093,-6.1143,-6.1103,-6.1135,-6.1143,-6.1152,-6.1163,-6.0925,-6.115,-6.1149,-6.1148,-6.1148,-6.1147,0,-6.0903,-6.0911,-6.0961,-6.1001,-6.1043,-6.0996,-6.1023,-6.1061,-6.112,-6.114,-6.1179,-6.1244,-6.1293,-6.1287,-6.1331,-6.1372,-6.1352,-6.1385,-6.1382,-6.1384,-6.1197,-6.1173,-6.1401,-6.1401,-6.1401,-6.1401,-6.1401,-6.1401,-6.1029,-6.1122,-6.1111,-6.1211,-6.1218,-6.1283,-6.1303,-6.1327,-6.1342,-6.1418,-6.1458,-6.1455,-6.1464,-6.1508,-6.155,-6.1547,-6.1566,-6.1608,-6.1597,-6.1422,-6.1397,-6.1373,-6.1351,-6.1612,-6.1613,-6.1779,-6.1781,-6.1782]}]]